Geely Xingzuo 03 zu 06 xing

operational
NORAD ID: 61016 Int'l Des: 2024-159 Owner: GEESP Country: CN Constellation: geesatcom
LEOCIRCULAR

Über Geely Xingzuo 03 zu 06 xing

Beschreibung wird geladen...

Live-Position

3D-Globus wird geladen...

Nächste Überflüge

Höhenverlauf

Altitude vs Time

uPlot chart will show altitude changes over time

Zweizeiliger Elementsatz

1 61016U 24159F 26062.05594130 .00004986 00000-0 62175-3 0 9999
2 61016 49.9956 215.4799 0016594 31.3003 328.8920 14.83760016 81007
Epoch: 3. März 2026 • Age: 13 hours

Aktueller Status

Höhe 614.7 km
Geschwindigkeit 7.56 km/s
Subsatellitenpunkt 48.98°N, 69.64°W
Startdatum 5. Sept. 2024
Alter 1.4 years
Typ other

Technische Details

Klassifizierung Payload
Masse 130.00 kg
Trockenmasse 130.00 kg
Gesamtmasse 130.00 kg
Länge 1.00 m
Durchmesser 0.50 m
Spannweite 2.00 m
Form Box + 2 pan
Hersteller GWCG
Bus-Typ GPS100
Phasenstatus In Orbit
Besitzer/Staat GEESP/CN

Große Konstellationen

Loading constellations...